Regional Weather Roundup
Issued by NWS

Home | Current Version | Previous Version | Text Only | Print | Product List | Glossary On
Versions: 1 2 3 4 5 6 7 8 9 10 11 12 13 14 15 16 17 18 19 20 21 22 23 24 25 26 27 28
000
ASUS45 KCYS 171510
RWRWY

WYOMING REGIONAL WEATHER ROUNDUP
NATIONAL WEATHER SERVICE CHEYENNE WY
800 AM MST TUE JAN 17 2017

NOTE:  "FAIR" INDICATES FEW OR NO CLOUDS BELOW 12,000 FEET
WITH NO SIGNIFICANT WEATHER AND/OR OBSTRUCTIONS TO VISIBILITY.

WYZ001-171600-
YELLOWSTONE NATIONAL PARK

CITY           SKY/WX    TMP DP  RH WIND       PRES   REMARKS
LK YELLOWSTONE   N/A    -12 -16  82 CALM      30.17R
W YELLOWSTONE  NOT AVBL

$$
WYZ002>013-054>058-071-098>099-171600-
NORTHERN WYOMING

CITY           SKY/WX    TMP DP  RH WIND       PRES   REMARKS
JACKSON        NOT AVBL
CODY           FAIR      15   6  67 CALM      29.97
GREYBULL       FAIR     -13 -19  75 CALM      30.08R
WORLAND        FAIR      -5  -8  87 CALM      30.04R
SHERIDAN       FAIR      11   1  64 S6        29.91F WCI   1
BUFFALO        FAIR      37   1  22 SW8       29.92S WCI  31
GILLETTE       FAIR      26   9  48 SW6       29.93S WCI  19
HULETT         FAIR      19   9  63 W3        29.93S
NEWCASTLE      FAIR      12   3  67 N5        30.00R WCI   4

$$
WYZ014>020-022>026-101>103-171600-
CENTRAL WYOMING

CITY           SKY/WX    TMP DP  RH WIND       PRES   REMARKS
BIG PINEY      FAIR     -20 -26  74 E7        30.15R WCI -37
PINEDALE       FAIR     -18 -26  69 W5        30.15R WCI -31
DUBOIS         NOT AVBL
LANDER         FAIR       0  -2  91 N5        30.06R FOG     WCI -10
RIVERTON       FOG       -5  -9  83 N6        30.08R VSB 1   WCI -18
CASPER         FAIR      20   5  52 SW22G30   30.02R WCI   3
DOUGLAS        FAIR       8   4  83 CALM      30.00S

$$
WYZ021-027>030-104>119-171600-
SOUTHERN WYOMING

CITY           SKY/WX    TMP DP  RH WIND       PRES   REMARKS
EVANSTON       FAIR       8   2  76 S6        30.14R WCI  -2
ROCK SPRINGS   FOG       -8 -12  83 S6        30.15S VSB 1/2 WCI -21
RAWLINS        FAIR       1  -4  79 CALM      30.15R
LARAMIE        FOG       -7 -10  87 CALM      30.05S VSB 1/4
CHEYENNE       FAIR      14   8  77 SW8       30.02R WCI   3
TORRINGTON     FAIR      12   7  80 CALM      30.02R

$$




USA.gov is the U.S. government's official web portal to all federal, state and local government web resources and services.